Wind_Speed
61 61 60 60 59 58 59 59 58 57 57 57 56 56 55 55 54 54 54 54 54 55 55 55 55 54 54 53 53 52 52 52 52 53 53 53 54 54 54 55 55 55 55 55 56 56 57 58 59 59 60 60 59 60 62 64 66 66 66 66 67 68 69 69 70 73 72 71 71 71 71 70 70 70 69 69 69 69 69 69 68 67 66 65 63
64 64 64 64 64 63 63 63 61 60 60 59 58 58 57 57 57 57 57 57 57 57 57 57 57 57 57 57 56 56 55 55 55 55 55 55 55 55 56 56 56 56 57 57 58 58 59 59 60 61 62 63 63 62 62 63 65 66 67 67 67 67 68 69 70 72 73 73 72 73 73 72 73 72 71 70 70 70 70 72 72 71 70 68 67
65 65 66 67 67 67 66 66 65 64 63 62 61 60 59 59 59 59 59 59 59 60 60 60 60 60 60 60 60 59 59 59 58 58 58 58 57 58 58 58 58 58 58 59 59 60 60 61 61 62 63 64 65 65 65 65 65 66 67 68 68 68 68 68 69 70 71 73 74 74 74 75 75 75 74 72 72 72 72 74 75 74 73 71 70
63 64 67 68 68 68 68 69 69 68 67 67 65 63 62 61 60 61 61 61 61 62 63 63 64 63 63 63 63 62 62 62 62 61 61 61 60 60 60 60 60 60 60 60 60 61 61 62 63 63 64 65 66 66 67 68 68 68 68 69 69 69 69 69 69 69 70 72 73 73 74 75 76 77 77 76 75 74 74 75 75 75 74 73 73
61 63 66 67 65 66 67 69 70 71 70 70 69 68 66 65 64 63 63 63 63 64 65 66 66 66 66 65 66 66 65 65 65 65 65 64 64 64 63 63 63 63 62 62 62 62 62 63 63 64 65 66 66 67 68 69 69 70 70 71 71 71 71 71 71 71 71 72 73 74 73 74 75 76 78 78 79 79 77 76 76 75 74 74 74
61 63 65 65 63 64 65 66 68 70 71 71 71 71 70 69 68 67 66 65 66 67 69 69 69 68 68 68 68 68 68 68 68 68 68 68 68 67 67 67 67 66 66 65 65 65 64 65 65 66 66 67 67 68 68 69 70 71 71 71 71 72 72 73 73 73 73 73 74 75 75 75 75 76 77 77 77 78 79 78 78 77 77 76 75
63 63 64 64 63 64 65 65 66 68 70 70 70 71 72 72 71 70 68 68 71 73 73 73 72 71 71 70 70 71 71 70 71 71 71 71 71 71 71 71 70 70 69 69 68 68 68 68 68 68 68 69 69 69 69 69 70 71 72 72 72 72 73 73 74 74 75 75 76 77 77 77 77 77 78 78 77 77 77 77 77 78 79 79 78
65 65 64 65 65 66 66 66 66 67 68 69 69 70 71 71 71 70 70 72 76 77 76 76 76 76 75 74 73 74 74 73 74 74 74 74 74 74 74 74 74 73 73 72 72 72 72 71 71 71 71 72 72 71 71 71 71 71 72 72 72 72 73 73 74 75 76 77 78 79 79 80 80 80 81 81 80 79 79 78 77 78 78 78 78
67 67 66 66 67 68 68 68 68 68 68 69 69 69 70 69 69 70 70 72 74 75 76 79 80 80 80 78 77 77 77 76 76 76 77 77 76 77 76 76 76 76 76 76 76 76 76 75 75 75 75 75 75 74 74 73 73 74 73 73 72 72 73 73 74 75 76 76 78 80 81 81 82 83 84 84 83 82 82 81 79 79 79 79 79
69 68 68 69 69 69 70 70 70 70 69 69 70 70 70 69 69 70 71 71 72 73 76 81 83 83 83 82 82 82 81 79 78 78 79 78 79 79 79 79 78 78 78 78 78 78 78 78 79 79 79 79 78 78 77 77 76 76 76 75 74 74 74 75 75 76 76 77 78 79 80 82 83 85 85 86 85 84 84 83 82 81 81 81 81
71 70 70 70 71 71 71 71 72 71 71 71 71 71 71 70 69 70 71 72 73 74 77 79 81 82 83 83 84 84 84 83 82 82 81 81 81 81 81 81 81 81 81 81 81 81 81 81 81 81 82 82 81 81 81 80 79 79 79 78 78 78 78 78 78 78 78 78 79 80 81 82 84 85 86 86 86 85 85 84 83 83 83 82 82
72 72 72 72 72 72 72 72 72 72 72 72 72 72 72 71 71 71 72 73 74 75 76 78 80 81 82 83 84 85 85 85 86 86 86 85 84 83 83 83 83 83 83 83 83 83 84 84 84 84 84 84 84 83 83 83 82 82 81 81 81 82 82 82 82 82 82 82 82 83 83 84 85 87 87 86 86 86 85 85 84 84 83 83 83
74 73 73 73 73 74 74 73 73 73 73 73 73 72 72 73 73 73 73 73 73 75 76 78 80 82 83 84 85 85 85 85 87 88 88 88 88 87 86 86 85 85 85 85 85 85 86 86 86 86 86 85 85 85 85 85 85 84 84 84 84 85 85 85 85 86 86 86 86 86 87 87 88 89 90 89 88 87 86 85 85 84 84 83 83
74 74 74 75 75 75 74 74 74 74 75 75 74 73 73 73 74 75 76 75 74 75 76 77 79 82 84 85 86 86 87 87 87 88 88 88 89 90 90 90 89 88 88 87 87 87 88 88 88 88 88 87 87 87 87 86 86 86 86 86 86 87 88 88 88 88 89 90 90 90 91 91 91 91 93 93 91 90 89 88 87 86 84 83 83
76 75 75 76 76 76 75 75 75 75 76 76 76 75 74 74 75 76 76 77 77 77 77 78 79 80 82 84 85 86 88 88 88 87 87 87 88 90 91 91 91 91 91 91 91 90 90 90 89 89 89 89 89 88 88 88 88 88 88 88 88 89 89 90 91 91 91 92 92 93 93 93 93 94 95 96 95 93 92 91 90 89 87 86 85
78 78 77 77 77 76 76 75 75 76 76 77 76 76 75 75 75 76 76 76 77 78 79 79 79 79 80 82 83 85 87 87 87 87 86 86 88 89 90 91 91 92 93 94 94 93 93 93 92 92 91 91 91 91 90 89 89 89 89 89 89 90 91 92 93 93 94 94 94 94 94 95 95 96 97 98 97 96 95 94 93 92 91 90 89
80 80 79 78 77 77 77 76 76 76 76 76 76 75 75 74 74 75 75 76 76 77 79 79 79 77 78 79 82 84 85 84 83 84 85 86 88 90 89 89 90 91 92 94 94 95 95 95 94 94 93 94 94 94 93 93 92 92 92 91 91 92 93 94 96 96 97 96 96 96 96 96 97 98 99 99 99 98 97 95 95 95 94 93 92
80 80 80 79 78 77 77 76 76 76 76 76 75 75 74 74 74 74 75 76 76 76 77 78 77 76 76 78 80 82 83 83 81 81 83 85 88 89 88 87 87 88 89 91 92 94 95 95 95 94 94 94 95 96 96 96 95 95 95 94 94 95 97 99 100 100 100 100 100 100 100 100 100 100 100 100 99 99 98 96 97 97 96 95 94
78 78 78 78 77 77 76 75 74 74 74 75 75 74 74 74 73 72 73 74 75 76 77 76 75 75 75 76 77 79 81 81 80 79 80 83 85 86 85 85 85 86 87 88 89 90 92 93 94 94 94 94 95 95 96 96 96 96 96 96 96 98 100 102 102 103 103 104 104 105 105 106 105 104 102 101 101 100 99 97 98 98 97 96 96
74 74 75 75 75 74 74 73 73 72 73 73 73 73 73 73 72 71 71 73 75 76 75 74 73 73 73 74 75 77 78 79 79 78 78 80 82 84 83 82 82 83 84 85 86 87 89 90 91 92 92 93 93 94 94 95 95 95 96 96 96 98 100 101 102 103 105 106 107 109 110 110 109 107 105 104 103 102 101 99 99 99 98 98 97
68 69 70 71 71 71 71 71 71 71 71 71 71 71 72 72 72 70 70 71 73 73 73 72 72 71 72 73 74 75 76 76 76 76 77 78 80 82 82 80 78 78 79 80 80 81 83 84 84 85 86 87 88 88 89 90 91 93 93 94 95 96 98 99 100 102 104 105 107 109 110 111 110 109 107 106 105 105 103 101 99 99 99 99 98
65 65 66 67 67 67 68 68 69 69 69 69 69 69 69 70 70 69 68 68 69 70 71 72 71 70 70 71 72 72 73 73 74 74 76 77 78 79 80 79 77 75 74 74 74 75 76 76 76 76 78 79 80 80 81 82 84 86 88 89 91 93 95 96 98 99 101 101 102 103 105 106 107 107 106 105 104 103 102 100 99 99 99 100 99
63 63 63 63 63 63 63 64 65 65 66 65 65 66 66 67 67 65 65 65 66 68 70 70 69 68 69 70 70 71 71 72 72 73 74 76 77 77 77 77 75 72 69 67 67 66 67 67 68 70 73 75 76 76 77 78 78 79 80 82 84 87 91 93 94 95 96 96 97 97 99 100 100 100 99 96 93 91 90 89 91 94 97 99 101
61 60 60 59 59 60 60 61 62 62 62 62 62 62 62 63 63 62 62 63 64 65 67 68 68 68 69 69 69 70 70 71 72 73 73 74 74 75 75 75 73 70 66 63 61 59 58 58 59 62 66 70 72 73 74 73 73 72 73 76 79 82 85 86 87 89 89 90 90 90 90 90 90 88 86 83 80 78 76 76 77 82 88 94 98
58 57 57 57 57 58 58 59 59 60 59 59 58 58 58 59 60 60 61 62 63 64 65 66 68 68 68 69 69 70 70 71 72 72 72 72 73 73 73 72 71 69 66 63 60 57 56 55 56 57 60 64 67 69 69 68 68 69 71 74 76 77 78 79 80 82 82 81 81 80 80 81 80 79 77 76 74 72 71 70 71 72 77 83 90
53 53 55 56 56 57 57 58 58 58 58 56 55 55 56 58 59 59 60 61 62 63 65 66 67 67 67 68 69 70 70 71 72 72 72 72 72 72 72 71 70 68 65 63 60 58 56 56 55 56 58 60 62 63 64 66 67 69 70 71 71 71 73 74 75 75 74 74 74 74 74 74 74 73 72 71 69 68 67 67 67 68 71 75 80
49 51 53 54 55 56 56 57 57 57 56 55 54 55 56 58 58 59 60 61 62 63 65 65 65 65 66 69 70 70 71 70 71 71 71 72 72 72 72 72 71 69 66 62 59 56 55 55 55 55 56 57 59 61 63 65 66 66 65 66 67 69 70 70 69 69 69 69 68 68 68 68 67 67 66 65 64 65 64 63 63 64 67 69 73
49 51 52 53 54 55 55 55 55 55 55 55 54 55 57 58 58 59 59 61 62 63 64 64 64 64 67 69 70 70 70 69 69 70 70 71 72 73 73 72 71 69 65 60 55 53 52 52 53 53 55 57 59 60 61 61 61 61 62 63 65 66 66 64 63 62 62 61 61 60 60 59 59 60 60 59 59 59 59 58 59 61 63 65 67
49 51 52 53 53 53 53 53 54 54 55 55 54 55 56 57 58 58 59 61 62 63 64 64 64 65 65 66 67 67 67 67 68 68 69 70 71 71 72 71 69 66 62 58 54 52 50 50 51 53 54 55 56 56 56 56 57 57 59 60 60 60 59 57 56 55 54 53 52 52 51 52 52 53 53 52 53 53 53 53 55 57 59 60 63
48 49 51 51 51 52 52 53 54 54 54 54 53 53 53 54 56 58 59 60 61 63 64 65 65 66 66 64 64 64 64 65 66 67 69 70 70 70 69 67 65 61 58 55 52 49 48 48 50 51 51 51 52 53 53 52 52 52 53 53 53 53 52 51 49 48 46 45 45 45 46 47 48 49 49 49 49 49 49 49 50 52 54 56 59
46 46 47 48 49 50 52 52 53 53 53 53 53 53 53 54 55 56 57 58 59 60 62 63 65 66 66 65 63 64 64 65 65 66 67 68 68 67 66 64 62 58 54 51 49 48 47 47 47 46 46 48 49 48 47 46 46 46 47 47 46 46 46 45 43 42 41 41 41 41 43 45 45 46 46 47 47 47 47 47 47 49 50 52 54
42 43 44 45 47 48 49 49 50 51 51 52 52 53 53 53 54 55 55 57 58 59 60 62 63 64 64 64 64 65 65 65 64 63 63 63 63 62 61 59 57 54 51 49 47 46 44 43 42 43 45 45 44 42 41 41 41 41 41 41 41 41 41 40 39 39 39 38 38 38 40 42 43 44 45 45 45 45 45 45 46 47 48 49 51
39 40 41 42 43 43 44 45 46 48 49 50 51 51 51 52 53 54 55 57 58 59 60 61 62 63 63 63 64 64 64 64 63 62 61 59 58 56 55 53 51 50 48 45 43 40 39 39 41 42 41 40 38 37 37 37 37 37 37 38 38 38 38 38 38 37 36 35 35 36 38 40 41 42 43 42 42 42 43 43 44 45 46 47 49
35 36 36 37 38 39 40 41 42 43 44 46 47 48 49 50 51 53 54 55 56 57 59 60 61 61 61 62 61 61 61 60 59 58 57 55 54 52 51 49 47 45 42 39 37 36 37 38 38 37 36 35 34 34 33 33 34 35 35 36 37 37 37 36 35 34 33 33 33 34 36 38 39 40 40 40 39 40 40 41 42 43 45 46 47
32 32 32 33 34 34 35 36 37 38 39 41 43 44 45 47 48 49 50 52 53 55 56 57 57 57 57 57 57 56 56 55 54 53 51 50 50 49 48 45 42 39 36 33 32 33 35 35 33 32 32 32 31 31 31 31 32 33 34 36 36 35 34 33 32 31 31 31 32 33 35 36 36 37 37 37 37 37 38 39 40 41 43 44 44
28 29 29 30 30 31 32 32 33 34 36 38 40 41 42 43 45 46 47 48 49 49 50 50 51 51 51 51 51 50 49 49 47 46 46 46 46 45 43 40 37 34 31 29 29 30 32 32 30 29 29 29 29 29 30 30 31 32 34 35 34 33 31 31 29 29 29 29 30 31 32 33 33 34 34 34 34 35 36 36 38 39 41 42 42
25 26 26 27 28 30 31 31 32 33 35 37 38 39 40 40 41 42 42 42 43 43 43 43 44 44 44 44 44 43 43 41 41 41 41 42 42 40 38 35 32 30 28 27 27 28 28 28 28 27 27 27 28 29 30 31 31 32 33 33 31 30 29 28 28 27 27 27 28 29 29 29 30 31 31 31 31 32 33 34 35 37 38 39 39
23 23 23 24 25 27 28 29 31 33 34 35 35 36 36 36 36 36 36 37 37 37 37 37 37 37 37 37 37 37 37 36 36 37 38 39 38 36 33 30 28 26 26 25 25 25 25 26 27 27 27 26 27 28 29 30 31 32 31 30 29 28 27 26 26 26 26 25 26 26 27 27 28 28 28 28 29 29 30 31 32 34 35 35 36
20 20 20 20 22 23 25 27 28 30 30 30 30 31 31 31 31 31 31 31 31 31 31 32 32 32 32 32 33 33 33 33 34 35 35 35 34 32 29 26 24 24 24 24 24 23 24 24 26 27 27 27 28 28 28 28 29 30 29 28 27 27 25 24 25 25 24 24 24 25 25 26 26 26 26 26 27 27 28 29 30 30 31 31 32
18 18 18 20 21 22 23 24 25 25 26 26 26 27 27 27 27 27 27 26 26 26 27 27 27 28 29 30 31 30 30 32 33 33 33 31 30 28 25 23 22 22 22 23 23 22 23 24 25 27 27 28 28 27 27 27 27 27 26 26 25 24 23 23 23 23 23 23 23 24 24 24 24 24 24 25 25 25 26 26 27 28 28 29 29
18 19 20 20 20 20 21 22 22 23 23 23 24 23 23 23 23 23 23 23 23 24 24 25 26 27 28 29 29 28 28 30 32 31 30 28 26 24 23 22 21 20 21 21 22 22 23 24 25 26 27 27 27 27 26 25 25 25 24 23 22 22 22 21 21 22 22 22 23 23 23 23 23 23 23 24 24 24 24 25 26 26 27 27 27
20 20 20 19 19 20 21 21 21 21 21 21 21 21 21 20 21 21 21 22 22 23 23 24 26 27 27 28 27 26 26 29 30 29 28 26 24 22 21 20 19 19 20 21 22 23 23 24 24 25 25 26 25 25 24 24 24 24 23 22 22 21 21 20 20 21 21 22 22 22 22 22 22 22 22 22 22 23 23 24 24 25 25 25 25
20 20 19 19 20 20 20 21 21 21 20 20 20 20 20 20 20 21 21 22 22 22 22 24 26 26 26 27 27 25 26 28 28 26 25 24 22 20 19 18 17 18 19 21 22 23 23 23 23 23 23 23 23 23 23 23 23 22 22 21 21 20 19 19 20 20 21 21 21 21 21 21 21 21 21 21 21 21 21 22 23 23 23 23 24
19 20 20 20 21 21 21 21 21 21 20 20 20 20 21 21 21 22 22 22 22 22 22 25 26 26 25 26 26 24 25 27 26 24 23 21 20 18 17 16 16 18 19 20 22 22 23 23 22 22 22 22 21 21 22 22 21 21 21 20 20 19 19 19 19 20 20 20 20 20 20 20 20 20 20 20 19 19 19 19 20 20 21 21 21
21 21 21 22 22 23 22 22 21 21 21 21 22 22 22 22 22 23 23 22 22 21 22 25 26 25 24 25 24 23 23 24 23 21 20 20 18 17 16 15 16 17 19 20 21 22 22 22 22 22 21 20 20 20 21 20 19 19 19 19 19 19 18 19 19 19 19 18 18 18 18 18 19 19 19 18 17 17 17 17 18 18 19 19 19
24 24 24 24 24 24 23 23 23 22 22 23 24 24 24 24 24 24 23 23 22 22 23 25 26 25 24 24 23 20 21 22 22 20 19 19 17 16 15 14 15 17 18 19 20 21 21 21 21 21 20 19 19 19 19 19 18 17 17 18 18 19 18 18 18 18 17 17 17 17 16 17 17 17 17 16 16 15 15 16 16 17 17 18 18
27 26 26 25 25 25 25 25 25 24 24 25 25 25 25 26 26 25 24 23 23 23 24 25 25 24 23 22 21 19 19 21 21 19 19 18 17 16 15 14 15 16 18 18 19 20 20 20 20 20 19 18 18 18 17 17 16 15 16 17 18 19 19 19 18 17 16 16 15 15 15 16 16 15 15 14 14 14 15 15 15 16 16 16 17
30 29 29 28 28 27 27 27 27 26 26 27 27 27 27 28 27 27 25 24 24 24 24 25 25 23 22 21 20 19 18 20 20 19 19 18 17 16 15 14 15 16 17 18 18 19 19 20 20 20 19 18 17 15 15 15 15 15 16 17 18 19 19 18 18 16 15 15 14 14 14 14 14 13 13 13 13 13 13 13 13 13 13 13 14
34 33 32 31 31 30 30 30 29 29 29 29 29 29 29 29 29 28 27 25 25 25 25 25 25 23 21 20 20 19 18 20 21 20 19 18 17 16 15 15 15 16 17 17 18 18 19 19 19 19 19 17 15 13 13 14 15 16 17 17 17 18 18 18 17 15 14 13 13 13 13 12 12 12 11 11 11 11 11 10 10 10 10 10 10
36 36 35 34 34 33 33 33 32 32 31 31 32 32 32 31 31 30 28 27 26 25 25 25 24 23 21 20 20 19 19 20 21 21 20 19 18 17 16 15 16 16 16 17 17 18 18 18 18 18 18 16 14 12 12 14 15 17 18 18 18 18 19 18 17 15 13 12 11 11 11 11 11 11 10 10 9 9 8 8 8 7 7 7 9
38 38 37 37 37 37 36 36 35 35 35 34 35 35 34 34 33 31 30 28 27 26 25 25 24 23 21 20 20 19 20 21 22 22 22 20 19 17 17 16 16 17 17 17 17 16 16 16 17 17 17 15 13 11 12 15 17 18 19 20 20 20 20 19 18 15 13 11 11 10 10 9 9 10 10 9 8 8 7 7 7 6 6 6 7
Wind_Direction
261 261 261 260 259 259 258 257 256 255 254 253 252 252 251 251 250 250 250 251 251 251 250 249 249 248 249 249 250 250 250 251 251 250 248 247 246 245 244 244 244 245 245 245 244 244 244 244 244 244 244 244 242 240 240 240 240 239 238 238 239 241 244 246 249 251 251 250 251 252 251 252 254 255 256 257 258 260 262 263 263 263 264 264 264
260 261 261 261 260 259 258 258 258 257 256 255 254 253 251 251 250 250 250 250 251 252 252 251 250 249 248 248 249 249 250 250 250 251 251 250 249 248 247 246 245 245 245 245 245 245 245 244 244 245 245 245 245 244 243 243 243 243 243 242 242 242 242 244 246 249 251 251 251 252 252 252 254 255 256 256 258 259 260 262 263 264 264 264 264
260 260 260 260 260 260 259 259 258 258 257 256 255 254 253 252 251 251 250 250 250 250 251 251 251 250 250 249 248 248 248 249 250 250 250 251 251 250 250 249 248 247 246 246 246 246 246 246 246 245 246 246 246 246 246 245 245 245 246 246 246 246 246 246 247 249 251 252 252 252 252 253 253 254 254 255 257 258 259 260 262 263 264 264 264
262 261 260 259 259 259 259 259 258 257 256 256 255 254 253 253 252 252 252 252 251 251 251 251 251 250 250 249 249 248 248 248 248 249 249 250 250 251 251 251 250 250 249 248 247 247 247 246 246 246 247 247 247 247 247 247 246 246 246 247 248 249 249 249 250 251 253 254 254 253 253 253 253 254 254 254 255 256 256 258 260 261 263 264 264
263 262 261 259 258 258 258 259 259 258 256 256 256 255 253 252 251 251 252 252 253 253 253 252 251 250 250 250 250 250 249 248 248 248 249 249 249 250 250 251 251 251 250 250 250 249 249 249 248 248 248 247 247 247 248 248 248 247 247 247 247 248 249 250 251 252 253 255 256 256 255 255 254 254 254 254 254 254 254 255 257 259 261 262 262
264 263 263 262 260 259 258 258 258 258 257 256 256 256 255 253 252 251 251 251 252 253 253 252 252 251 251 250 250 250 250 249 249 249 249 249 249 249 249 249 250 250 250 250 250 251 251 251 251 250 250 249 249 248 248 248 249 249 249 248 248 248 248 249 251 252 254 255 257 258 258 257 257 257 256 255 254 254 254 254 254 256 258 259 260
264 264 264 264 263 261 260 258 258 258 258 257 256 255 255 254 253 252 252 252 251 251 250 251 251 251 250 250 250 250 250 249 249 249 249 249 249 249 248 248 249 249 249 249 250 250 250 251 251 251 251 251 251 250 250 250 249 250 250 250 249 249 249 249 249 250 252 254 256 258 258 259 259 259 259 258 257 256 255 254 254 254 255 256 257
265 265 265 264 264 263 261 260 259 258 258 257 256 255 255 254 254 253 252 251 251 251 251 251 251 251 250 249 249 248 248 248 248 248 248 248 248 248 248 248 249 249 249 249 249 249 249 249 250 250 251 251 252 252 252 252 251 251 251 251 251 251 251 250 250 250 251 252 254 255 257 257 258 259 259 260 259 259 258 257 256 255 255 255 256
266 266 265 265 264 264 263 262 261 260 259 259 258 257 256 255 254 253 252 251 251 252 253 253 251 250 250 250 249 249 248 248 248 248 248 248 248 248 248 248 249 249 249 249 249 249 249 249 249 250 250 250 250 251 251 252 252 252 253 253 253 253 253 252 252 252 252 252 253 254 255 256 256 257 258 258 259 259 259 259 258 258 257 257 256
266 266 265 265 264 264 263 263 263 262 261 260 260 258 257 256 254 253 253 252 252 252 252 252 252 251 251 250 250 250 250 249 249 249 249 249 249 249 248 248 248 248 249 249 249 249 249 249 250 250 250 250 250 250 250 251 251 252 253 253 253 254 254 254 254 254 253 253 253 254 255 256 256 256 257 257 258 257 258 258 258 258 258 258 258
265 265 264 264 264 263 263 263 263 263 262 262 261 260 259 257 256 255 254 253 252 252 253 254 255 255 254 252 251 251 251 250 250 250 250 250 250 250 250 250 249 249 249 249 249 249 249 249 250 250 250 251 251 251 251 251 251 252 252 253 253 253 254 254 254 254 254 254 254 254 255 255 256 256 256 256 257 257 257 257 257 257 257 258 258
263 263 263 263 262 262 262 262 263 263 263 262 262 262 262 260 258 256 255 254 253 252 252 253 255 255 255 255 254 253 252 251 251 250 250 250 250 250 251 251 251 251 251 250 250 250 250 250 250 250 250 251 251 252 252 252 253 253 253 253 253 253 253 254 254 254 254 254 254 254 255 255 256 256 256 256 256 256 256 256 256 256 256 256 257
261 262 261 261 261 261 261 261 262 262 262 262 262 262 263 263 262 260 258 256 255 254 253 252 253 253 254 254 254 254 253 252 252 251 251 251 251 251 251 251 251 252 252 252 252 252 252 252 251 251 251 251 252 252 253 253 253 254 254 254 254 254 254 254 254 254 254 254 254 254 254 254 254 256 256 256 255 255 255 255 255 255 256 256 256
260 260 260 259 259 259 259 259 260 260 261 261 261 261 261 261 262 263 262 261 259 258 257 255 254 254 254 254 254 254 254 253 253 253 252 252 252 251 251 251 251 252 252 252 253 253 253 253 253 254 254 253 253 253 254 254 254 254 254 254 254 255 255 255 254 254 254 254 253 253 254 254 253 254 255 255 254 254 255 255 254 254 255 255 255
260 259 259 258 258 258 257 257 258 258 259 259 260 260 260 260 260 260 262 262 262 261 260 259 257 256 256 256 255 255 255 255 254 254 254 254 253 253 252 252 252 252 252 252 252 253 253 254 254 255 255 256 256 255 255 255 256 256 256 256 256 256 256 256 256 255 255 254 254 253 253 253 253 253 254 254 254 254 254 254 254 254 254 254 254
260 260 259 258 258 258 257 257 257 257 257 258 259 259 259 260 260 260 260 260 261 262 261 261 259 259 258 258 257 256 256 255 256 256 255 255 255 254 254 253 253 253 253 253 253 253 254 254 254 255 256 256 257 257 257 257 257 257 258 258 258 258 258 258 258 257 257 256 255 255 254 254 253 253 253 253 254 253 253 253 253 253 253 253 253
260 260 259 259 258 258 258 257 257 257 257 257 258 259 259 259 260 261 261 260 260 260 261 261 261 260 259 258 258 257 257 256 256 256 256 256 256 255 255 255 255 254 254 254 254 254 254 255 255 255 256 256 257 257 258 257 257 258 258 259 259 259 260 260 259 259 259 258 258 257 256 256 255 254 254 253 253 253 252 252 252 253 252 252 253
260 259 259 259 259 258 258 258 258 258 258 258 258 259 259 259 259 260 261 262 262 261 261 261 261 260 259 257 257 257 258 257 256 255 255 255 255 255 255 255 256 256 256 256 256 256 256 256 256 256 257 257 258 258 258 258 258 258 258 259 259 260 260 260 260 260 260 260 259 259 258 258 256 255 255 254 254 253 253 252 252 252 252 252 252
259 259 259 259 259 258 258 258 258 258 258 258 258 259 259 259 259 259 260 262 262 262 261 260 260 259 258 257 257 257 257 258 257 256 256 256 257 257 256 256 256 256 256 257 257 257 257 258 258 259 259 259 259 259 260 260 260 260 260 260 260 260 260 260 260 261 261 261 260 260 259 259 258 257 256 256 255 254 253 252 252 252 251 251 251
260 260 260 259 259 259 259 258 257 257 257 257 257 258 258 258 258 258 258 259 260 260 261 261 260 259 258 257 257 256 257 258 259 259 258 259 259 260 259 258 257 257 257 257 258 258 259 259 260 260 261 261 261 261 262 262 262 262 261 261 261 261 261 261 261 262 262 262 261 261 260 260 259 259 258 258 257 256 254 253 252 252 252 251 250
260 260 259 259 259 258 258 258 257 256 256 256 256 256 256 257 257 257 256 257 258 259 260 260 259 258 258 257 257 257 257 258 259 259 260 260 260 261 262 262 261 260 260 260 260 260 261 261 261 262 263 263 263 263 263 264 263 263 263 263 262 262 262 262 262 261 261 261 261 261 261 261 261 261 260 259 259 258 256 254 253 252 252 252 251
258 257 257 257 257 257 257 257 256 256 255 255 255 255 255 255 255 255 254 255 255 257 258 258 258 258 258 258 258 258 258 258 258 259 259 260 261 262 263 264 264 264 263 263 263 263 264 264 264 265 265 265 264 263 262 262 262 262 263 263 263 263 262 262 261 260 260 260 261 262 262 263 263 263 263 262 262 261 260 258 256 254 253 252 252
258 258 258 258 257 257 257 256 256 255 255 254 254 254 254 254 254 254 254 253 253 254 256 257 258 258 258 258 258 259 259 259 259 259 259 260 262 263 264 266 267 268 268 268 267 266 266 265 265 265 265 264 264 263 262 261 261 261 261 262 261 261 261 260 260 260 261 261 262 263 264 264 265 266 267 267 266 265 264 261 258 255 253 251 251
258 258 259 259 258 258 257 256 256 255 255 254 253 253 253 253 253 253 253 253 252 253 254 256 257 258 258 258 259 259 259 259 259 260 260 261 263 264 266 268 269 271 272 272 271 270 269 267 264 263 263 263 264 263 263 262 262 261 260 260 259 259 259 260 261 262 262 263 264 265 266 267 268 269 269 269 268 267 264 261 257 254 252 250 249
259 260 260 260 259 258 258 257 256 256 255 254 254 254 253 253 253 252 252 252 253 253 254 255 256 257 258 258 258 259 259 260 260 261 262 263 264 265 267 269 271 272 273 273 273 273 272 269 265 262 261 261 261 263 263 264 263 261 259 258 258 260 261 262 262 263 264 266 267 268 269 269 269 270 269 268 267 265 263 260 257 253 251 249 248
259 259 259 259 258 258 257 256 256 256 255 255 255 254 254 254 253 253 252 252 253 253 254 254 255 256 258 258 259 259 259 260 261 263 264 265 266 267 268 270 271 272 273 274 273 273 272 269 265 262 260 260 261 262 263 263 262 261 261 261 262 263 264 264 265 266 268 269 269 269 269 269 269 268 267 266 265 263 261 259 257 254 251 249 247
258 257 256 256 256 255 255 255 255 255 255 255 254 253 253 253 253 253 253 253 253 254 254 254 255 256 256 257 258 259 259 260 262 263 265 266 267 268 269 271 272 273 274 273 273 272 270 268 265 263 263 263 262 262 261 260 261 262 264 264 265 265 265 266 267 268 269 269 268 268 267 266 266 265 264 263 262 261 260 258 257 255 252 249 248
258 257 256 255 254 254 253 253 253 253 253 253 251 250 250 251 251 252 253 254 254 255 255 255 255 254 254 256 257 259 261 262 263 264 265 266 267 268 269 270 271 272 273 273 272 270 268 267 266 265 264 263 262 262 262 262 263 264 264 264 264 265 266 268 268 267 267 266 266 264 264 263 263 262 262 261 261 260 258 257 256 254 252 250 248
255 254 254 253 253 254 254 253 253 252 251 251 249 247 247 248 249 249 250 252 253 255 257 258 258 257 256 257 258 260 261 263 264 265 265 266 266 267 268 269 270 271 272 273 272 270 269 267 266 264 264 264 264 264 264 264 263 263 263 264 265 266 267 267 266 265 264 264 263 263 263 262 262 261 261 261 260 259 257 256 254 253 252 250 248
254 253 253 253 253 253 253 252 252 252 251 251 250 249 248 248 248 248 248 249 251 254 256 259 261 262 262 262 262 263 263 263 264 264 265 265 266 267 268 270 271 272 272 272 271 269 268 267 266 266 266 266 265 263 263 263 263 264 264 264 265 265 266 265 264 264 263 263 263 263 263 262 261 261 261 260 260 259 257 256 254 253 251 249 248
255 254 253 252 251 250 250 249 250 250 250 251 251 250 249 249 249 250 250 251 252 253 255 257 259 262 264 266 266 266 266 265 264 264 264 265 266 267 269 271 272 273 273 273 271 269 268 269 270 270 268 265 264 264 266 265 265 264 264 264 264 265 265 265 264 264 265 264 264 264 263 263 263 262 261 260 260 259 258 257 255 254 252 250 248
254 253 251 250 249 248 248 248 248 249 249 248 249 249 249 249 250 251 251 252 253 254 255 256 258 260 263 264 265 266 267 267 268 267 267 267 268 268 269 270 271 272 272 270 268 269 272 273 272 269 266 266 267 268 268 267 266 265 265 265 264 265 265 266 266 267 267 267 266 265 264 264 263 262 261 260 260 259 258 256 255 254 253 251 249
253 251 250 249 248 248 247 246 246 246 246 246 247 247 248 248 248 249 249 251 252 254 255 257 258 260 262 263 264 266 267 269 270 270 271 271 271 271 270 270 270 269 269 269 271 274 275 272 268 267 267 269 270 268 267 266 266 266 265 265 266 267 268 269 270 270 269 268 267 265 264 262 262 261 261 260 259 257 256 254 253 253 252 251 249
252 251 249 248 246 245 244 243 243 243 243 244 244 244 244 245 246 247 248 249 250 251 253 255 257 259 261 263 265 266 267 269 270 271 271 272 271 271 269 268 268 269 271 275 278 277 272 268 267 268 270 270 268 267 266 266 266 266 267 268 269 269 270 271 272 272 271 269 266 263 261 260 259 259 259 258 257 255 253 252 252 251 251 250 249
251 249 246 244 243 242 241 241 241 241 241 240 240 240 240 241 242 243 245 246 247 249 251 254 256 259 261 263 264 266 267 268 268 269 270 269 269 268 268 269 271 274 278 279 276 272 270 268 268 269 269 268 267 267 267 266 267 269 270 271 271 271 272 273 273 272 270 267 263 260 258 257 257 257 256 255 254 252 251 250 250 249 250 250 249
250 247 244 241 239 238 237 237 237 237 237 237 237 237 238 238 240 241 243 245 247 249 251 253 255 257 259 261 262 263 265 266 267 267 267 267 267 268 270 274 277 280 280 277 272 268 267 269 268 267 267 268 268 269 269 270 271 271 271 272 273 274 275 275 274 270 266 262 259 257 256 256 255 254 253 252 251 250 249 248 248 248 249 250 250
247 244 241 238 235 234 233 232 232 232 233 234 234 235 236 237 239 241 243 245 247 248 250 252 253 255 257 259 260 262 263 264 265 266 267 268 269 272 275 278 281 281 278 274 269 267 267 268 269 268 268 268 269 271 272 273 273 273 272 273 275 276 276 274 271 266 262 258 256 255 255 254 253 252 252 251 250 249 248 247 247 247 248 248 249
241 239 236 233 231 230 229 228 227 228 230 231 232 234 235 236 238 239 241 242 244 246 248 250 252 254 256 258 260 261 263 264 265 266 268 270 273 275 278 280 280 278 274 271 268 268 269 270 270 270 271 271 271 272 273 273 273 273 274 275 276 275 272 269 266 263 260 257 255 254 253 252 252 251 250 249 249 248 248 247 247 247 247 247 248
234 231 228 225 222 221 221 221 222 223 225 226 227 228 229 230 232 234 236 239 241 244 247 250 253 256 258 260 261 263 265 266 267 267 269 272 274 277 279 279 277 274 272 270 269 269 269 270 271 272 273 274 274 274 273 273 273 273 274 273 272 270 268 265 263 261 259 256 254 252 252 251 251 250 249 249 248 248 248 248 249 249 249 249 248
223 217 212 211 211 212 213 213 214 215 216 217 218 219 221 223 226 228 232 236 240 245 249 253 256 259 260 261 263 265 267 268 269 269 271 273 275 276 277 276 274 272 270 269 269 269 268 269 270 272 274 275 276 275 275 274 274 273 272 269 269 269 267 264 261 259 258 255 253 251 251 251 251 250 249 249 250 250 250 251 251 252 251 250 249
209 205 205 205 205 205 205 205 205 205 207 209 211 214 216 219 223 228 233 238 243 248 252 257 260 261 262 264 265 266 268 269 269 271 273 274 275 276 275 273 270 268 266 267 268 268 267 267 269 271 273 274 275 276 276 275 274 271 270 269 269 269 266 263 261 259 257 254 251 250 250 250 251 250 250 251 252 253 253 252 252 252 251 251 250
205 204 203 202 201 200 199 199 200 202 205 207 210 213 218 223 228 233 239 243 249 253 258 262 264 264 265 267 268 268 269 269 269 271 272 273 274 272 269 266 265 263 264 265 266 267 268 268 269 270 271 272 273 274 273 271 270 269 270 270 269 267 265 263 260 258 255 253 251 250 250 250 250 251 251 253 254 254 253 252 251 250 250 249 248
206 204 202 200 199 198 198 199 201 203 206 210 214 220 225 231 236 241 245 249 254 258 262 266 266 266 267 269 270 270 269 268 268 269 269 269 268 264 259 258 258 259 262 264 266 268 270 271 271 271 271 271 271 271 270 270 270 271 271 270 268 265 263 260 256 255 254 252 251 250 250 249 249 250 252 254 255 254 252 250 249 248 248 247 246
207 204 202 200 199 199 200 202 204 207 211 216 222 228 234 238 243 247 250 253 256 260 264 267 268 267 268 269 269 269 267 266 265 265 264 262 259 255 251 250 252 256 259 262 266 269 271 272 272 272 272 272 272 271 271 271 272 271 270 267 264 261 257 253 250 250 250 250 250 250 248 247 247 249 252 255 255 252 250 249 248 248 247 245 244
210 207 204 202 202 203 204 207 209 213 218 223 229 235 239 243 246 248 251 253 257 261 265 268 268 268 268 268 267 265 263 262 261 260 258 255 251 246 243 243 248 254 258 262 265 268 269 271 272 273 273 273 273 273 273 273 272 269 265 262 258 254 249 245 244 245 246 248 248 248 246 245 245 248 251 253 252 250 249 249 248 247 244 241 238
214 212 209 207 206 207 209 212 215 219 224 230 235 239 243 245 248 250 252 254 258 261 265 267 268 268 267 266 264 260 258 258 257 254 251 249 245 240 238 239 245 251 256 259 263 266 268 270 271 272 272 274 274 275 275 274 270 263 257 252 249 245 241 238 238 240 243 247 248 246 243 242 243 246 250 251 250 248 246 245 243 241 238 234 231
217 215 213 212 212 213 215 217 221 225 230 235 240 243 245 247 249 251 253 254 257 260 262 265 267 268 266 264 261 257 253 252 252 250 246 244 241 237 234 237 242 248 253 256 259 263 267 268 270 271 272 273 273 274 273 269 261 251 244 240 238 236 233 231 232 236 241 245 247 245 241 239 241 245 248 249 248 246 243 238 235 232 230 227 226
220 219 217 216 217 218 220 223 226 229 234 238 242 245 247 249 251 252 252 254 256 258 261 263 266 266 263 261 259 255 249 247 248 246 243 242 239 235 234 236 239 245 249 253 256 260 264 266 269 271 272 273 274 274 268 258 246 237 231 230 231 231 229 227 228 232 239 244 244 241 238 238 241 243 245 246 245 243 238 233 228 225 222 221 221
222 222 221 220 221 223 224 226 229 233 237 241 244 246 248 250 251 252 252 254 255 257 259 262 263 262 259 257 257 253 245 242 244 244 242 239 237 235 234 234 237 241 246 250 254 258 261 265 268 271 271 272 274 271 260 246 234 226 221 221 223 227 227 226 227 230 235 239 239 235 234 237 239 240 240 240 239 237 234 229 224 221 219 219 219
226 226 225 224 225 226 227 229 232 235 239 242 245 247 248 250 251 251 252 254 255 256 258 260 261 259 255 253 254 250 243 239 240 242 241 238 235 234 233 234 236 239 243 247 252 257 261 265 269 271 271 272 272 264 249 236 226 220 214 211 213 220 224 224 225 228 231 231 229 227 228 234 237 237 235 233 231 229 226 223 218 215 214 217 220
230 230 229 229 229 230 230 232 234 237 240 242 245 247 248 249 250 251 252 253 254 255 256 258 258 256 251 249 250 248 241 236 236 239 240 237 234 232 232 233 234 236 239 244 250 255 261 267 270 270 271 271 266 254 240 228 219 215 211 207 208 213 218 220 221 223 223 220 217 216 219 225 231 232 231 227 222 216 214 212 207 201 200 208 216
Height
10510 10511 10512 10513 10515 10517 10518 10519 10523 10526 10527 10530 10532 10535 10537 10539 10541 10542 10543 10544 10544 10545 10546 10548 10549 10551 10552 10553 10554 10555 10557 10558 10559 10560 10561 10563 10564 10566 10568 10569 10571 10572 10575 10576 10578 10580 10582 10584 10585 10587 10589 10591 10593 10595 10597 10599 10601 10603 10605 10607 10610 10611 10612 10614 10612 10610 10613 10618 10620 10621 10624 10626 10626 10628 10631 10632 10633 10635 10637 10638 10639 10641 10643 10644 10645
10502 10503 10504 10504 10505 10507 10509 10510 10514 10517 10518 10521 10523 10525 10528 10530 10532 10534 10535 10536 10537 10537 10538 10540 10542 10543 10544 10546 10547 10549 10550 10552 10553 10554 10554 10556 10557 10559 10561 10562 10564 10566 10568 10569 10571 10572 10574 10576 10578 10579 10581 10583 10585 10587 10589 10591 10593 10595 10597 10600 10602 10604 10606 10607 10607 10604 10603 10608 10612 10613 10616 10618 10618 10619 10623 10625 10626 10628 10629 10630 10631 10633 10635 10637 10638
10493 10494 10495 10495 10495 10498 10500 10500 10504 10507 10509 10511 10513 10516 10519 10521 10523 10525 10526 10527 10529 10529 10530 10531 10533 10535 10536 10538 10539 10541 10543 10544 10545 10547 10548 10549 10550 10552 10553 10555 10557 10559 10561 10562 10564 10565 10566 10568 10570 10571 10573 10575 10577 10579 10581 10583 10585 10587 10589 10592 10594 10597 10599 10600 10600 10599 10596 10597 10602 10605 10607 10610 10610 10611 10614 10617 10618 10620 10622 10621 10623 10625 10627 10629 10631
10483 10484 10484 10485 10486 10488 10489 10489 10492 10496 10498 10500 10503 10506 10510 10512 10514 10516 10517 10518 10519 10520 10521 10521 10523 10525 10527 10529 10530 10532 10534 10536 10538 10539 10540 10542 10543 10545 10546 10548 10549 10551 10553 10554 10556 10558 10559 10561 10562 10564 10566 10567 10569 10571 10573 10575 10577 10579 10581 10584 10586 10588 10591 10593 10593 10593 10592 10590 10592 10596 10599 10601 10602 10603 10605 10608 10609 10611 10613 10613 10615 10618 10619 10621 10623
10472 10473 10472 10473 10476 10478 10479 10479 10480 10483 10487 10490 10492 10495 10499 10502 10504 10506 10508 10509 10510 10510 10510 10510 10512 10515 10518 10520 10522 10523 10526 10528 10529 10531 10532 10534 10535 10537 10538 10540 10541 10542 10544 10546 10548 10550 10552 10553 10555 10557 10558 10560 10562 10563 10565 10567 10568 10571 10573 10575 10578 10580 10583 10585 10586 10586 10586 10584 10583 10586 10590 10591 10592 10593 10595 10598 10600 10602 10604 10605 10607 10610 10612 10613 10615
10461 10462 10461 10463 10466 10468 10469 10470 10470 10471 10475 10479 10481 10484 10487 10490 10493 10496 10499 10501 10501 10500 10498 10499 10501 10504 10507 10510 10512 10513 10516 10518 10520 10521 10522 10525 10526 10528 10529 10530 10532 10534 10535 10537 10539 10541 10543 10545 10546 10548 10549 10551 10553 10555 10557 10558 10560 10562 10564 10566 10569 10572 10574 10576 10578 10579 10579 10577 10575 10576 10579 10582 10583 10583 10584 10588 10591 10592 10594 10597 10600 10602 10603 10605 10607
10450 10451 10452 10453 10455 10456 10458 10460 10461 10461 10463 10467 10470 10472 10475 10477 10481 10486 10490 10492 10488 10485 10486 10488 10489 10492 10495 10498 10500 10501 10504 10506 10508 10509 10511 10514 10516 10517 10518 10520 10522 10524 10526 10528 10530 10532 10534 10535 10537 10538 10540 10541 10543 10545 10547 10550 10551 10552 10554 10557 10560 10563 10565 10567 10569 10571 10571 10570 10569 10568 10570 10572 10573 10573 10572 10575 10580 10582 10584 10588 10591 10592 10594 10596 10598
10439 10441 10442 10443 10444 10445 10447 10449 10450 10451 10452 10455 10458 10460 10462 10466 10471 10475 10478 10477 10473 10473 10477 10479 10479 10480 10482 10484 10487 10488 10490 10493 10495 10497 10499 10501 10503 10505 10507 10510 10512 10514 10516 10518 10520 10521 10523 10525 10526 10528 10529 10531 10532 10535 10537 10540 10542 10543 10545 10548 10551 10553 10556 10558 10560 10561 10563 10563 10562 10560 10561 10563 10563 10562 10561 10563 10568 10571 10573 10578 10581 10582 10584 10588 10589
10429 10431 10432 10433 10434 10435 10436 10437 10438 10440 10442 10444 10446 10448 10451 10455 10460 10462 10463 10463 10463 10466 10468 10465 10464 10466 10469 10472 10475 10475 10477 10481 10483 10485 10487 10489 10491 10494 10496 10499 10501 10504 10506 10508 10509 10511 10513 10514 10516 10517 10519 10520 10522 10524 10527 10529 10531 10533 10535 10538 10542 10544 10545 10547 10549 10550 10552 10554 10554 10552 10552 10553 10553 10552 10552 10553 10557 10560 10562 10566 10570 10571 10573 10577 10578
10420 10421 10422 10423 10424 10425 10425 10426 10427 10429 10431 10433 10434 10436 10439 10443 10447 10449 10451 10453 10455 10456 10454 10450 10450 10454 10457 10461 10463 10463 10466 10470 10472 10474 10476 10478 10480 10482 10485 10487 10490 10492 10494 10496 10498 10500 10502 10504 10505 10506 10508 10509 10511 10513 10515 10518 10521 10523 10525 10528 10531 10534 10535 10536 10538 10539 10541 10543 10543 10543 10543 10543 10541 10541 10542 10543 10546 10550 10552 10555 10559 10561 10562 10565 10567
10409 10410 10411 10412 10413 10414 10415 10416 10416 10418 10420 10421 10422 10424 10427 10432 10436 10438 10439 10441 10443 10443 10443 10441 10442 10444 10447 10449 10451 10453 10456 10459 10461 10463 10465 10467 10469 10470 10473 10475 10478 10480 10482 10484 10486 10488 10491 10493 10494 10495 10497 10499 10501 10503 10505 10507 10510 10513 10515 10517 10520 10522 10524 10525 10526 10528 10530 10531 10532 10532 10533 10532 10530 10529 10532 10533 10535 10539 10542 10544 10548 10550 10551 10554 10555
10399 10399 10400 10401 10402 10403 10404 10405 10406 10407 10408 10409 10411 10413 10416 10419 10422 10425 10426 10428 10430 10432 10432 10432 10432 10433 10435 10436 10437 10441 10444 10447 10448 10450 10452 10455 10457 10459 10461 10463 10466 10468 10470 10473 10475 10476 10478 10480 10481 10483 10485 10487 10490 10492 10494 10496 10499 10501 10504 10506 10507 10509 10511 10512 10514 10515 10517 10519 10520 10520 10521 10521 10519 10518 10520 10523 10524 10527 10531 10534 10536 10538 10540 10543 10545
10389 10389 10389 10390 10391 10392 10393 10394 10395 10396 10396 10398 10400 10402 10405 10406 10408 10411 10413 10415 10418 10420 10420 10421 10422 10422 10422 10423 10425 10428 10431 10433 10435 10437 10440 10443 10445 10447 10450 10451 10454 10456 10459 10461 10463 10464 10466 10467 10469 10471 10473 10476 10478 10480 10482 10485 10487 10489 10491 10493 10495 10496 10497 10499 10501 10502 10503 10504 10506 10507 10507 10508 10509 10508 10506 10509 10512 10515 10518 10521 10523 10526 10529 10532 10534
10378 10379 10379 10379 10380 10381 10382 10384 10385 10386 10386 10387 10389 10392 10394 10396 10397 10398 10399 10403 10406 10408 10409 10410 10411 10411 10411 10412 10414 10416 10418 10419 10422 10424 10428 10431 10433 10434 10436 10439 10442 10444 10446 10448 10450 10452 10453 10455 10457 10459 10461 10464 10466 10468 10471 10473 10474 10476 10478 10480 10481 10482 10482 10484 10486 10487 10488 10489 10491 10493 10493 10493 10496 10496 10494 10494 10499 10502 10504 10507 10510 10513 10517 10520 10522
10365 10366 10367 10367 10367 10369 10372 10374 10375 10376 10376 10377 10379 10381 10384 10386 10387 10387 10389 10391 10393 10394 10396 10397 10398 10399 10400 10401 10403 10404 10406 10408 10411 10413 10417 10419 10420 10421 10424 10427 10430 10431 10433 10435 10437 10439 10441 10443 10446 10448 10449 10452 10453 10456 10459 10461 10463 10464 10465 10466 10468 10468 10469 10470 10470 10472 10473 10474 10476 10478 10479 10479 10481 10482 10481 10480 10484 10488 10491 10494 10497 10500 10503 10507 10510
10351 10352 10353 10354 10355 10357 10360 10363 10365 10365 10366 10367 10369 10371 10374 10375 10375 10377 10379 10380 10381 10381 10382 10383 10385 10388 10389 10390 10391 10392 10394 10397 10400 10403 10406 10407 10407 10408 10411 10414 10416 10418 10419 10421 10424 10427 10428 10431 10434 10436 10438 10439 10440 10443 10446 10448 10451 10452 10453 10454 10455 10455 10456 10455 10455 10456 10457 10459 10461 10463 10465 10466 10466 10467 10467 10467 10470 10474 10477 10481 10484 10486 10489 10493 10496
10338 10338 10339 10342 10344 10346 10349 10351 10354 10355 10356 10358 10359 10361 10363 10364 10365 10366 10367 10369 10370 10370 10370 10371 10373 10376 10378 10379 10378 10378 10380 10384 10389 10391 10393 10393 10393 10394 10397 10400 10403 10404 10406 10408 10411 10414 10416 10418 10421 10424 10426 10427 10428 10429 10431 10434 10437 10438 10440 10441 10442 10442 10442 10440 10438 10439 10440 10443 10446 10447 10449 10451 10451 10452 10453 10453 10456 10458 10462 10469 10471 10471 10475 10480 10483
10325 10325 10328 10330 10333 10335 10337 10340 10343 10344 10346 10347 10349 10351 10352 10354 10355 10356 10356 10357 10359 10360 10359 10360 10362 10364 10365 10365 10365 10365 10367 10371 10375 10378 10379 10379 10378 10380 10385 10389 10391 10392 10394 10397 10399 10401 10403 10405 10407 10410 10413 10414 10414 10416 10417 10419 10422 10424 10426 10428 10429 10428 10425 10422 10422 10424 10426 10428 10429 10431 10432 10433 10434 10435 10437 10439 10441 10443 10448 10455 10455 10455 10461 10467 10470
10313 10315 10317 10319 10321 10324 10326 10329 10331 10333 10335 10336 10338 10340 10341 10342 10345 10347 10347 10347 10347 10347 10347 10349 10351 10352 10352 10353 10354 10355 10356 10358 10361 10365 10367 10367 10367 10369 10374 10378 10380 10381 10384 10386 10388 10389 10391 10392 10394 10397 10399 10400 10401 10402 10403 10405 10407 10410 10412 10414 10414 10412 10408 10407 10409 10410 10411 10411 10412 10413 10414 10413 10415 10418 10422 10424 10426 10429 10434 10439 10440 10441 10447 10452 10455
10303 10305 10307 10308 10310 10312 10315 10317 10320 10322 10324 10325 10327 10329 10330 10331 10333 10336 10337 10336 10335 10334 10336 10338 10340 10340 10341 10342 10343 10344 10345 10347 10350 10353 10356 10357 10357 10358 10361 10365 10368 10371 10373 10375 10376 10378 10379 10381 10382 10383 10385 10387 10388 10389 10390 10391 10393 10395 10396 10397 10398 10395 10393 10393 10396 10396 10395 10395 10394 10393 10393 10395 10398 10403 10406 10408 10410 10412 10417 10423 10426 10428 10432 10436 10441
10294 10295 10296 10297 10299 10301 10303 10305 10307 10310 10312 10314 10316 10318 10319 10320 10322 10324 10326 10325 10324 10325 10326 10327 10328 10329 10331 10331 10332 10334 10336 10338 10340 10342 10344 10345 10346 10346 10348 10351 10355 10358 10361 10363 10365 10366 10367 10368 10370 10371 10372 10374 10375 10376 10377 10378 10378 10379 10380 10380 10380 10379 10378 10380 10380 10379 10378 10378 10377 10376 10377 10378 10381 10384 10388 10391 10393 10395 10400 10406 10412 10416 10419 10423 10427
10282 10283 10284 10286 10288 10290 10292 10293 10295 10298 10301 10303 10305 10307 10308 10309 10310 10313 10315 10315 10315 10315 10315 10316 10318 10320 10322 10322 10323 10325 10326 10328 10331 10332 10333 10334 10334 10335 10337 10338 10341 10345 10348 10351 10352 10354 10355 10356 10357 10358 10359 10360 10361 10361 10362 10362 10362 10363 10364 10364 10364 10364 10363 10363 10363 10362 10362 10363 10363 10364 10365 10364 10364 10365 10369 10373 10376 10379 10384 10390 10397 10402 10405 10409 10412
10271 10273 10275 10276 10278 10280 10282 10283 10285 10287 10289 10292 10294 10296 10297 10298 10300 10303 10304 10305 10305 10306 10306 10307 10310 10311 10312 10313 10314 10315 10316 10318 10321 10322 10323 10324 10324 10325 10326 10327 10329 10332 10335 10338 10339 10341 10342 10343 10344 10345 10345 10345 10346 10346 10347 10348 10348 10350 10350 10349 10349 10348 10346 10347 10347 10348 10350 10352 10353 10353 10352 10350 10350 10352 10354 10357 10360 10363 10368 10373 10378 10382 10386 10389 10393
10261 10264 10266 10267 10268 10270 10272 10273 10274 10276 10279 10282 10284 10286 10287 10289 10291 10293 10294 10294 10295 10296 10298 10299 10300 10301 10302 10303 10305 10306 10307 10309 10310 10311 10313 10314 10315 10316 10317 10317 10319 10321 10323 10325 10326 10328 10329 10331 10332 10332 10332 10332 10333 10333 10334 10335 10336 10337 10336 10334 10333 10332 10332 10334 10335 10336 10339 10340 10340 10341 10340 10339 10339 10340 10341 10343 10346 10349 10351 10354 10358 10361 10365 10369 10373
10254 10257 10257 10258 10259 10260 10262 10263 10264 10266 10269 10272 10275 10277 10279 10280 10282 10283 10284 10285 10286 10288 10289 10290 10291 10291 10293 10294 10295 10297 10298 10299 10300 10302 10303 10305 10305 10306 10307 10308 10309 10310 10312 10313 10315 10316 10318 10318 10319 10320 10321 10321 10321 10321 10322 10323 10323 10323 10321 10319 10319 10321 10323 10324 10325 10326 10328 10329 10329 10329 10329 10328 10328 10328 10329 10330 10333 10335 10337 10339 10342 10345 10349 10353 10356
10248 10249 10249 10249 10250 10251 10252 10253 10254 10257 10259 10263 10266 10268 10270 10271 10272 10274 10275 10277 10279 10280 10281 10281 10282 10284 10285 10286 10286 10288 10289 10290 10291 10293 10294 10296 10296 10297 10298 10298 10299 10300 10301 10303 10304 10305 10307 10307 10308 10309 10310 10310 10312 10312 10313 10312 10310 10309 10309 10309 10311 10312 10313 10314 10315 10317 10317 10318 10318 10318 10317 10316 10316 10316 10317 10319 10321 10322 10324 10327 10329 10332 10335 10338 10341
10240 10240 10240 10241 10241 10241 10243 10244 10246 10249 10252 10255 10257 10259 10260 10261 10263 10265 10267 10269 10271 10271 10272 10273 10275 10277 10278 10277 10278 10279 10281 10282 10284 10285 10286 10287 10287 10288 10288 10289 10289 10289 10290 10292 10294 10295 10296 10297 10298 10299 10301 10302 10302 10301 10301 10300 10300 10301 10301 10302 10302 10302 10302 10304 10306 10307 10307 10306 10307 10306 10305 10304 10305 10305 10306 10308 10310 10311 10313 10316 10318 10320 10322 10325 10329
10230 10230 10231 10231 10232 10233 10235 10237 10239 10241 10244 10246 10248 10250 10251 10252 10254 10257 10258 10260 10261 10262 10263 10265 10267 10268 10269 10269 10270 10271 10273 10275 10277 10278 10278 10279 10279 10279 10279 10279 10279 10280 10281 10282 10284 10285 10287 10288 10289 10290 10291 10291 10290 10290 10291 10292 10293 10293 10292 10291 10291 10292 10293 10295 10296 10296 10296 10296 10296 10295 10295 10295 10295 10295 10296 10298 10299 10300 10303 10306 10308 10308 10309 10313 10317
10220 10220 10221 10222 10223 10225 10227 10229 10231 10233 10234 10236 10238 10241 10243 10244 10247 10249 10250 10251 10252 10253 10254 10256 10257 10258 10260 10262 10263 10264 10266 10267 10268 10269 10269 10269 10269 10269 10269 10270 10271 10272 10273 10274 10276 10277 10278 10279 10280 10281 10281 10282 10282 10282 10283 10283 10283 10283 10282 10282 10282 10283 10283 10285 10286 10286 10286 10287 10286 10286 10286 10286 10286 10286 10287 10289 10290 10291 10293 10296 10297 10297 10299 10302 10305
10211 10212 10213 10214 10216 10218 10219 10220 10222 10223 10225 10227 10230 10233 10236 10237 10239 10240 10242 10244 10246 10246 10247 10248 10249 10249 10251 10253 10255 10257 10258 10259 10259 10259 10259 10259 10259 10260 10261 10261 10262 10263 10264 10266 10267 10268 10270 10271 10272 10273 10274 10274 10273 10272 10273 10274 10274 10273 10273 10273 10273 10274 10274 10275 10276 10277 10277 10277 10278 10278 10277 10277 10277 10278 10279 10280 10281 10282 10284 10286 10287 10287 10289 10291 10293
10203 10204 10205 10207 10208 10209 10210 10212 10213 10215 10218 10220 10222 10225 10227 10229 10231 10232 10235 10237 10239 10240 10241 10242 10242 10242 10243 10245 10247 10247 10248 10248 10249 10250 10250 10250 10251 10252 10253 10253 10254 10255 10256 10257 10258 10260 10262 10263 10264 10265 10264 10263 10263 10263 10264 10265 10265 10264 10264 10265 10265 10265 10265 10266 10268 10268 10269 10269 10270 10270 10269 10269 10269 10270 10271 10271 10273 10274 10276 10277 10278 10279 10280 10282 10283
10195 10196 10197 10198 10199 10200 10202 10205 10207 10209 10211 10213 10215 10217 10220 10222 10224 10226 10228 10229 10231 10232 10234 10235 10235 10236 10237 10238 10238 10238 10238 10239 10240 10241 10241 10242 10243 10244 10245 10246 10247 10247 10248 10250 10251 10253 10256 10257 10256 10255 10254 10253 10254 10256 10256 10256 10256 10256 10256 10256 10257 10257 10258 10259 10260 10260 10261 10262 10262 10262 10262 10262 10262 10262 10263 10264 10266 10267 10268 10269 10270 10271 10272 10273 10274
10187 10188 10189 10190 10192 10194 10196 10198 10200 10202 10204 10207 10209 10211 10214 10216 10218 10220 10221 10223 10224 10225 10227 10227 10228 10229 10230 10231 10231 10231 10231 10231 10232 10232 10233 10234 10234 10236 10237 10238 10239 10240 10241 10243 10246 10248 10249 10248 10246 10245 10245 10246 10247 10248 10248 10248 10249 10249 10249 10249 10250 10250 10251 10252 10252 10253 10254 10254 10255 10255 10255 10255 10255 10255 10256 10257 10259 10260 10261 10262 10263 10263 10264 10265 10266
10180 10181 10183 10184 10186 10188 10189 10191 10194 10196 10199 10201 10203 10206 10208 10210 10212 10213 10215 10217 10218 10219 10220 10221 10222 10222 10223 10224 10224 10224 10225 10225 10225 10225 10226 10227 10227 10228 10229 10230 10232 10234 10237 10239 10240 10240 10239 10238 10238 10238 10239 10240 10240 10240 10241 10242 10242 10242 10243 10243 10243 10244 10245 10246 10246 10247 10247 10248 10248 10248 10248 10249 10249 10249 10250 10251 10252 10253 10254 10255 10256 10257 10257 10258 10259
10174 10175 10177 10178 10180 10181 10184 10186 10188 10191 10193 10195 10197 10199 10201 10203 10205 10207 10209 10210 10212 10213 10214 10215 10216 10217 10217 10218 10218 10218 10218 10218 10219 10220 10220 10220 10221 10221 10223 10225 10227 10230 10233 10234 10233 10232 10230 10230 10232 10232 10233 10233 10234 10235 10235 10236 10236 10236 10236 10236 10237 10238 10239 10240 10240 10241 10241 10242 10242 10242 10243 10243 10244 10244 10245 10246 10246 10247 10248 10249 10249 10250 10250 10251 10253
10169 10170 10171 10173 10174 10176 10178 10180 10183 10185 10187 10189 10191 10193 10195 10197 10199 10201 10203 10205 10206 10208 10209 10210 10211 10211 10212 10212 10212 10212 10213 10213 10214 10214 10214 10214 10215 10216 10218 10220 10223 10225 10226 10226 10226 10225 10225 10225 10226 10227 10228 10228 10229 10229 10230 10230 10230 10231 10231 10231 10231 10233 10233 10234 10235 10236 10236 10237 10237 10237 10237 10238 10239 10239 10239 10240 10241 10242 10242 10243 10244 10244 10245 10246 10248
10164 10165 10167 10168 10170 10171 10173 10176 10178 10180 10182 10184 10186 10188 10190 10192 10194 10196 10198 10200 10202 10203 10204 10205 10206 10206 10207 10207 10207 10207 10208 10208 10209 10209 10209 10209 10210 10212 10214 10216 10218 10219 10220 10220 10219 10220 10220 10220 10221 10222 10222 10223 10224 10224 10224 10225 10225 10225 10225 10226 10227 10228 10229 10229 10230 10230 10231 10231 10231 10232 10232 10233 10233 10234 10234 10235 10236 10237 10237 10238 10239 10239 10240 10241 10243
10160 10162 10163 10164 10166 10168 10170 10172 10174 10175 10177 10179 10182 10184 10186 10189 10191 10193 10194 10196 10197 10198 10199 10200 10201 10201 10202 10202 10202 10202 10203 10204 10204 10204 10205 10205 10206 10208 10210 10212 10213 10214 10214 10214 10214 10215 10215 10216 10216 10217 10218 10219 10219 10219 10220 10220 10220 10220 10221 10222 10223 10223 10224 10225 10225 10225 10226 10226 10227 10227 10227 10228 10228 10229 10230 10231 10231 10232 10233 10233 10234 10235 10236 10237 10238
10157 10159 10160 10161 10163 10164 10166 10168 10170 10172 10174 10176 10179 10181 10183 10185 10187 10189 10190 10191 10192 10194 10194 10195 10196 10196 10197 10197 10197 10198 10199 10199 10200 10200 10201 10202 10203 10204 10206 10208 10209 10209 10209 10209 10210 10211 10211 10212 10212 10212 10213 10214 10214 10215 10215 10216 10216 10216 10217 10218 10219 10219 10220 10220 10220 10221 10221 10222 10222 10223 10223 10223 10224 10225 10226 10227 10227 10228 10229 10229 10230 10230 10231 10232 10233
10155 10156 10157 10158 10159 10161 10163 10165 10167 10169 10171 10173 10175 10177 10180 10182 10183 10185 10186 10187 10188 10189 10190 10191 10191 10191 10192 10192 10193 10194 10195 10195 10195 10196 10197 10198 10200 10201 10202 10203 10204 10204 10204 10205 10206 10207 10208 10208 10208 10209 10209 10210 10210 10211 10211 10212 10212 10213 10213 10214 10215 10215 10215 10216 10216 10216 10217 10218 10218 10219 10219 10220 10221 10222 10222 10223 10224 10224 10225 10225 10226 10227 10227 10228 10229
10151 10152 10153 10155 10157 10158 10160 10162 10164 10166 10169 10171 10173 10175 10177 10179 10180 10182 10183 10184 10185 10185 10186 10187 10187 10187 10188 10188 10190 10191 10191 10191 10191 10192 10193 10195 10196 10197 10198 10199 10200 10200 10201 10202 10202 10203 10204 10205 10205 10206 10206 10206 10206 10207 10208 10208 10209 10209 10209 10210 10211 10211 10211 10211 10212 10212 10213 10214 10214 10215 10216 10217 10218 10219 10219 10220 10220 10221 10222 10222 10223 10223 10223 10224 10226
10148 10149 10151 10153 10155 10156 10158 10160 10162 10164 10166 10168 10170 10172 10174 10176 10177 10178 10179 10180 10181 10182 10182 10183 10183 10183 10184 10185 10186 10187 10187 10187 10187 10189 10190 10191 10192 10194 10194 10195 10196 10197 10198 10199 10199 10200 10201 10202 10202 10203 10203 10203 10204 10204 10205 10205 10205 10205 10206 10206 10207 10207 10207 10208 10208 10209 10209 10210 10212 10213 10213 10214 10215 10216 10216 10217 10218 10218 10219 10219 10219 10220 10220 10221 10222
10145 10147 10149 10151 10153 10154 10156 10158 10160 10162 10164 10166 10167 10169 10171 10172 10174 10175 10176 10177 10177 10178 10179 10179 10179 10180 10180 10181 10182 10183 10183 10183 10184 10185 10186 10187 10189 10190 10191 10192 10193 10194 10195 10196 10196 10197 10198 10199 10199 10200 10200 10201 10201 10201 10201 10201 10201 10202 10202 10202 10203 10203 10204 10205 10205 10206 10207 10208 10209 10210 10211 10212 10212 10213 10213 10214 10215 10215 10216 10216 10216 10217 10217 10218 10219
10143 10145 10147 10149 10151 10153 10155 10156 10158 10160 10162 10163 10165 10166 10168 10169 10170 10171 10172 10173 10174 10175 10175 10175 10176 10176 10177 10178 10179 10180 10179 10179 10180 10182 10183 10184 10186 10187 10188 10190 10191 10192 10192 10193 10193 10194 10195 10195 10196 10197 10197 10198 10198 10198 10198 10198 10198 10198 10199 10199 10199 10200 10201 10202 10203 10204 10205 10206 10207 10208 10209 10209 10210 10210 10211 10211 10212 10212 10213 10213 10213 10214 10214 10215 10216
10141 10143 10145 10147 10149 10151 10152 10154 10156 10158 10159 10161 10162 10163 10165 10166 10167 10168 10169 10170 10171 10171 10172 10172 10172 10173 10174 10174 10175 10176 10176 10176 10177 10179 10180 10181 10183 10184 10186 10187 10188 10189 10190 10190 10191 10191 10192 10193 10193 10194 10194 10195 10195 10195 10194 10195 10195 10195 10196 10196 10197 10198 10199 10200 10201 10202 10203 10204 10205 10205 10206 10206 10207 10208 10208 10209 10209 10209 10210 10210 10210 10211 10212 10212 10213
10139 10141 10143 10145 10146 10148 10150 10152 10153 10155 10157 10158 10159 10160 10161 10163 10163 10164 10165 10166 10167 10168 10169 10169 10169 10170 10170 10171 10172 10172 10172 10172 10174 10176 10177 10178 10180 10182 10183 10184 10186 10187 10187 10188 10189 10189 10190 10190 10191 10191 10191 10192 10192 10192 10192 10192 10192 10193 10193 10194 10195 10196 10197 10199 10200 10201 10202 10202 10202 10203 10203 10204 10205 10205 10206 10206 10207 10207 10207 10208 10208 10209 10209 10210 10210
10136 10138 10140 10142 10144 10146 10147 10149 10150 10152 10153 10155 10156 10157 10158 10159 10160 10161 10162 10163 10164 10165 10165 10165 10166 10167 10167 10167 10168 10169 10169 10169 10171 10173 10174 10176 10177 10179 10180 10182 10183 10184 10185 10186 10186 10187 10187 10188 10188 10188 10189 10189 10189 10189 10189 10189 10189 10190 10191 10192 10193 10194 10196 10197 10198 10199 10199 10200 10200 10201 10201 10202 10203 10203 10204 10204 10204 10205 10205 10206 10206 10207 10207 10208 10208
10132 10135 10137 10139 10141 10142 10144 10146 10147 10149 10150 10151 10152 10154 10154 10155 10156 10157 10158 10159 10160 10161 10162 10162 10163 10163 10164 10164 10165 10166 10166 10167 10168 10170 10171 10173 10175 10176 10178 10179 10180 10181 10183 10184 10184 10185 10185 10185 10185 10185 10186 10187 10187 10187 10187 10187 10187 10188 10189 10190 10191 10193 10194 10195 10196 10197 10198 10198 10198 10199 10199 10200 10201 10201 10202 10202 10203 10203 10204 10204 10205 10205 10205 10206 10207
10129 10131 10134 10136 10137 10139 10141 10142 10144 10145 10147 10148 10149 10150 10151 10152 10152 10153 10154 10156 10157 10157 10158 10159 10159 10160 10161 10161 10161 10162 10163 10164 10165 10167 10168 10170 10172 10173 10175 10176 10178 10179 10180 10181 10182 10183 10183 10183 10183 10183 10183 10184 10184 10184 10184 10184 10185 10186 10187 10189 10190 10192 10193 10193 10194 10195 10196 10196 10197 10198 10198 10199 10199 10200 10200 10201 10201 10202 10202 10202 10203 10203 10204 10205 10205
10126 10128 10130 10132 10134 10136 10137 10139 10140 10142 10143 10144 10145 10146 10147 10148 10149 10150 10151 10152 10153 10154 10155 10155 10156 10157 10157 10158 10158 10159 10160 10161 10162 10164 10165 10167 10169 10171 10172 10174 10175 10177 10178 10179 10180 10180 10181 10181 10181 10181 10181 10181 10182 10182 10182 10182 10183 10184 10185 10187 10189 10190 10191 10192 10193 10194 10194 10195 10196 10197 10197 10197 10198 10198 10199 10200 10200 10201 10201 10202 10202 10203 10203 10204 10205
10123 10124 10126 10128 10130 10132 10133 10135 10136 10138 10139 10140 10141 10142 10143 10144 10145 10146 10147 10148 10149 10150 10151 10152 10152 10153 10154 10154 10155 10156 10157 10158 10159 10161 10162 10164 10166 10168 10170 10171 10173 10174 10176 10176 10177 10178 10179 10179 10179 10178 10178 10179 10179 10180 10180 10180 10181 10182 10184 10185 10187 10188 10189 10190 10191 10192 10193 10194 10195 10196 10196 10196 10197 10197 10198 10199 10199 10200 10201 10202 10202 10203 10203 10204 10205